Change the Weather History Date:

Monday, February 4, 2013

  Actual Average (KCEW) Record (KCEW)
Temperature  
Mean Temperature 50 °F -  
Max Temperature 62 °F 63 °F 75 °F (1991)
Min Temperature 39 °F 39 °F 21 °F (1951)
Degree Days  
Heating Degree Days 14    
Moisture  
Dew Point 39 °F    
Average Humidity 63    
Maximum Humidity 86    
Minimum Humidity 38    
Precipitation  
Precipitation 0.00 in - - ()
Sea Level Pressure  
Sea Level Pressure 30.08 in    
Wind  
Wind Speed 2 mph (SE)    
Max Wind Speed 7 mph    
Max Gust Speed -    
Visibility 10 miles    
Events Rain    
Averages and records for this station are not official NWS values.
T = Trace of Precipitation, MM = Missing Value Source: NWS Daily Summary

Daily Weather History Graph

Daily Weather History Graph

Search for Another Location

Airport or City:

Trip Planner

Search our weather history database for the weather conditions in past years. The results will help you decide how hot, cold, wet, or windy it might be!

Date:

Astronomy

Feb. 04, 2013 Rise Set
Actual Time 6:35 AM CST 5:23 PM CST
Civil Twilight 6:09 AM CST 5:48 PM CST
Nautical Twilight 5:41 AM CST 6:17 PM CST
Astronomical Twilight 5:12 AM CST 6:46 PM CST
Moon 1:05 AM CST 11:52 AM CST
Length of Visible Light 11h 39m
Length of Day
10h 48m
Last Quarter, 37% of the Moon is Illuminated
Feb 4
Last Quarter
Feb 10
New
Feb 17
First Quarter
Feb 25
Full
Mar 4
Last Quarter

Hourly Weather History & Observations

Time (CST) Temp. Windchill Dew Point Humidity Pressure Visibility Wind Dir Wind Speed Gust Speed Precip Events Conditions
12:58 AM 43.0 °F - 36.0 °F 76% 30.12 in 8.0 mi Calm Calm - N/A   Clear
1:58 AM 44.1 °F 42.5 °F 34.0 °F 68% 30.11 in 10.0 mi NNW 3.5 mph - N/A   Clear
2:58 AM 39.0 °F - 34.0 °F 82% 30.11 in 10.0 mi Calm Calm - N/A   Clear
4:58 AM 39.9 °F - 36.0 °F 86% 30.11 in 10.0 mi Calm Calm - N/A   Clear
5:58 AM 39.9 °F 36.7 °F 34.0 °F 79% 30.12 in 10.0 mi NNE 4.6 mph - N/A   Clear
6:58 AM 43.0 °F 40.3 °F 33.1 °F 68% 30.13 in 10.0 mi NE 4.6 mph - N/A   Clear
7:58 AM 45.0 °F 42.6 °F 33.1 °F 63% 30.14 in 10.0 mi ENE 4.6 mph - N/A   Clear
8:58 AM 50.0 °F - 34.0 °F 54% 30.14 in 10.0 mi ESE 6.9 mph - N/A   Clear
9:58 AM 54.0 °F - 33.1 °F 45% 30.14 in 10.0 mi ESE 5.8 mph - N/A   Clear
10:58 AM 55.9 °F - 35.1 °F 45% 30.14 in 10.0 mi Calm Calm - N/A   Clear
11:58 AM 59.0 °F - 34.0 °F 39% 30.12 in 10.0 mi South 5.8 mph - N/A   Clear
12:58 PM 60.1 °F - 34.0 °F 38% 30.09 in 10.0 mi SSW 4.6 mph - N/A   Clear
1:58 PM 61.0 °F - 35.1 °F 38% 30.06 in 10.0 mi SSE 4.6 mph - N/A   Clear
2:58 PM 62.1 °F - 36.0 °F 38% 30.06 in 10.0 mi South 5.8 mph - N/A   Clear
3:58 PM 62.1 °F - 37.9 °F 41% 30.05 in 10.0 mi South 4.6 mph - N/A   Clear
4:58 PM 59.0 °F - 43.0 °F 55% 30.05 in 10.0 mi Calm Calm - N/A   Clear
5:58 PM 55.9 °F - 44.1 °F 64% 30.04 in 10.0 mi Calm Calm - N/A   Clear
6:58 PM 55.9 °F - 46.0 °F 69% 30.05 in 10.0 mi South 4.6 mph - N/A   Partly Cloudy
7:58 PM 55.9 °F - 48.0 °F 75% 30.05 in 10.0 mi Calm Calm - N/A   Mostly Cloudy
8:58 PM 55.0 °F - 48.0 °F 77% 30.04 in 10.0 mi South 4.6 mph - N/A   Overcast
9:58 PM 54.0 °F - 48.0 °F 80% 30.03 in 10.0 mi Calm Calm - N/A   Clear
10:58 PM 54.0 °F - 48.9 °F 83% 30.03 in 10.0 mi Calm Calm - 0.00 in Rain Light Rain
11:58 PM 53.1 °F - 48.0 °F 83% 30.02 in 10.0 mi Calm Calm - 0.00 in   Scattered Clouds